START_TIME,STEP,MOV.,M35,t_acc.,PL05,t_acc.,PL06,t_acc.,PL07,t_acc.
1979-07-20 09:00:08.090 ,0,0,,0,,0,,0,,0
1979-07-20 09:00:12.890 ,0,0,,0,,0,,0,,0
1979-07-20 09:00:17.690 ,0,0,0.,4.8,11.,4.8,4.,4.8,1.,4.8
1979-07-20 09:00:22.490 ,0,0,0.,4.8,11.,4.8,3.,4.8,1.,4.8
1979-07-20 09:00:27.290 ,0,0,,0,,0,,0,,0
1979-07-20 09:00:23.690 ,0,0,0.,4.8,10.,4.8,6.,4.8,0.,4.8
1979-07-20 09:00:28.490 ,0,0,,0,,0,,0,,0
1979-07-20 09:00:33.290 ,0,0,0.,4.8,8.,4.8,5.,4.8,1.,4.8
1979-07-20 09:00:38.090 ,0,0,,0,,0,,0,,0
1979-07-20 09:00:42.890 ,0,0,,0,,0,,0,,0
1979-07-20 09:00:52.490 ,0,0,,0,,0,,0,,0
1979-07-20 09:00:57.290 ,0,0,0.,4.8,5.,4.8,2.,4.8,0.,4.8
1979-07-20 09:01:02.090 ,0,0,0.,4.8,14.,4.8,4.,4.8,1.,4.8
1979-07-20 09:01:06.890 ,0,0,0.,4.8,8.,4.8,2.,4.8,2.,4.8
1979-07-20 09:01:11.690 ,0,0,0.,4.8,8.,4.8,1.,4.8,1.,4.8
1979-07-20 09:01:11.690 ,0,0,0.,4.8,11.,4.8,4.,4.8,3.,4.8
1979-07-20 09:01:16.490 ,0,0,0.,4.8,15.,4.8,3.,4.8,0.,4.8
1979-07-20 09:01:21.290 ,0,0,0.,4.8,15.,4.8,0.,4.8,1.,4.8
1979-07-20 09:01:26.090 ,0,0,,0,,0,,0,,0
1979-07-20 09:01:30.890 ,0,0,,0,,0,,0,,0
1979-07-20 09:01:35.690 ,0,0,,0,,0,,0,,0
1979-07-20 09:01:40.490 ,0,0,,0,,0,,0,,0
1979-07-20 09:01:45.290 ,0,0,0.,4.8,7.,4.8,1.,4.8,2.,4.8
1979-07-20 09:01:50.090 ,0,0,0.,4.8,5.,4.8,2.,4.8,2.,4.8
1979-07-20 09:01:54.890 ,0,0,,0,,0,,0,,0
1979-07-20 09:01:59.690 ,0,0,0.,4.8,5.,4.8,2.,4.8,1.,4.8
1979-07-20 09:02:04.490 ,0,0,,0,,0,,0,,0
1979-07-20 09:02:09.290 ,0,0,0.,4.8,4.,4.8,2.,4.8,1.,4.8
1979-07-20 09:02:14.090 ,0,0,0.,4.8,4.,4.8,2.,4.8,1.,4.8
1979-07-20 09:02:18.890 ,0,0,,0,,0,,0,,0
1979-07-20 09:02:23.680 ,0,0,0.,4.8,4.,4.8,4.,4.8,1.,4.8
1979-07-20 09:02:28.490 ,0,0,0.,4.8,0.,4.8,2.,4.8,3.,4.8
1979-07-20 09:02:33.290 ,0,0,0.,4.8,57.,4.8,24.,4.8,7.,4.8
1979-07-20 09:02:38.090 ,0,0,0.,4.8,40.,4.8,23.,4.8,5.,4.8
1979-07-20 09:02:42.890 ,0,0,1.,4.8,53.,4.8,17.,4.8,6.,4.8
1979-07-20 09:02:47.690 ,0,0,,0,,0,,0,,0
1979-07-20 09:02:52.490 ,0,0,,0,,0,,0,,0
1979-07-20 09:02:57.290 ,0,0,,0,,0,,0,,0
1979-07-20 09:03:02.090 ,0,0,,0,,0,,0,,0
1979-07-20 09:03:06.890 ,0,0,,0,,0,,0,,0
1979-07-20 09:06:33.880 ,7,0,,0,,0,,0,,0
1979-07-20 09:06:38.680 ,7,0,,0,,0,,0,,0
1979-07-20 09:06:43.480 ,7,0,0.,4.8,1.,4.8,0.,4.8,0.,4.8
1979-07-20 09:06:48.280 ,7,0,0.,4.8,0.,4.8,0.,4.8,0.,4.8
1979-07-20 09:06:53.080 ,7,0,0.,4.8,1.,4.8,0.,4.8,1.,4.8
1979-07-20 09:06:47.680 ,7,0,0.,4.8,0.,4.8,0.,4.8,0.,4.8
1979-07-20 09:06:52.480 ,7,0,0.,4.8,0.,4.8,0.,4.8,0.,4.8
1979-07-20 09:06:57.280 ,7,0,0.,4.8,2.,4.8,0.,4.8,0.,4.8
1979-07-20 09:07:02.080 ,7,0,0.,4.8,0.,4.8,0.,4.8,0.,4.8
1979-07-20 09:07:06.880 ,7,0,0.,4.8,1.,4.8,0.,4.8,0.,4.8
1979-07-20 09:07:11.680 ,3,1,0.,4.8,2.,4.8,0.,4.8,0.,4.8
1979-07-20 09:07:16.480 ,3,1,0.,4.8,3.,4.8,5.,4.8,1.,4.8
1979-07-20 09:07:21.280 ,3,1,0.,4.8,31.,4.8,5.,4.8,6.,4.8
1979-07-20 09:07:26.080 ,3,1,0.,4.8,49.,4.8,7.,4.8,3.,4.8
1979-07-20 09:07:30.880 ,3,1,1.,4.8,39.,4.8,14.,4.8,6.,4.8
1979-07-20 09:07:35.680 ,0,0,0.,4.8,49.,4.8,18.,4.8,5.,4.8
1979-07-20 09:07:40.480 ,0,0,0.,4.8,23.,4.8,8.,4.8,2.,4.8
1979-07-20 09:07:45.280 ,0,0,,0,,0,,0,,0
1979-07-20 09:07:50.080 ,0,0,,0,,0,,0,,0
1979-07-20 09:07:54.880 ,0,0,,0,,0,,0,,0
1979-07-20 09:08:57.880 ,0,0,,0,,0,,0,,0
1979-07-20 09:09:02.680 ,0,0,,0,,0,,0,,0
1979-07-20 09:09:07.480 ,0,0,0.,4.8,14.,4.8,5.,4.8,3.,4.8
1979-07-20 09:09:12.280 ,0,0,1.,4.8,86.,4.8,7.,4.8,4.,4.8
1979-07-20 09:09:17.080 ,0,0,0.,4.8,94.,4.8,16.,4.8,6.,4.8
1979-07-20 09:09:11.680 ,0,1,0.,4.8,38.,4.8,12.,4.8,3.,4.8
1979-07-20 09:09:16.480 ,0,1,0.,4.8,15.,4.8,14.,4.8,3.,4.8
1979-07-20 09:09:21.280 ,0,1,0.,4.8,15.,4.8,3.,4.8,4.,4.8
1979-07-20 09:09:26.080 ,0,1,0.,4.8,14.,4.8,3.,4.8,1.,4.8
1979-07-20 09:09:30.880 ,0,1,0.,4.8,14.,4.8,1.,4.8,1.,4.8
1979-07-20 09:09:35.680 ,4,1,0.,4.8,8.,4.8,4.,4.8,1.,4.8
1979-07-20 09:09:40.480 ,4,1,0.,4.8,13.,4.8,5.,4.8,3.,4.8
1979-07-20 09:09:45.280 ,4,1,0.,4.8,15.,4.8,10.,4.8,6.,4.8
1979-07-20 09:09:50.080 ,4,1,0.,4.8,34.,4.8,13.,4.8,10.,4.8
1979-07-20 09:09:54.880 ,4,1,0.,4.8,36.,4.8,13.,4.8,8.,4.8
1979-07-20 09:09:59.680 ,7,1,0.,4.8,26.,4.8,10.,4.8,5.,4.8
1979-07-20 09:10:04.480 ,7,1,0.,4.8,7.,4.8,3.,4.8,3.,4.8
1979-07-20 09:10:09.280 ,7,1,0.,4.8,7.,4.8,0.,4.8,1.,4.8
1979-07-20 09:10:14.080 ,7,1,0.,4.8,0.,4.8,0.,4.8,0.,4.8
1979-07-20 09:10:18.880 ,7,1,0.,4.8,0.,4.8,0.,4.8,1.,4.8
1979-07-20 09:10:23.680 ,3,1,0.,4.8,1.,4.8,0.,4.8,0.,4.8
1979-07-20 09:10:28.480 ,3,1,0.,4.8,4.,4.8,2.,4.8,0.,4.8
1979-07-20 09:10:33.280 ,3,1,0.,4.8,7.,4.8,5.,4.8,4.,4.8
1979-07-20 09:10:38.080 ,3,1,0.,4.8,19.,4.8,10.,4.8,5.,4.8
1979-07-20 09:10:42.880 ,3,1,0.,4.8,27.,4.8,13.,4.8,3.,4.8
1979-07-20 09:10:47.680 ,0,1,0.,4.8,22.,4.8,13.,4.8,6.,4.8
1979-07-20 09:10:52.480 ,0,1,1.,4.8,10.,4.8,11.,4.8,5.,4.8
1979-07-20 09:10:57.280 ,0,1,0.,4.8,4.,4.8,2.,4.8,2.,4.8
1979-07-20 09:11:02.080 ,0,1,0.,4.8,6.,4.8,4.,4.8,3.,4.8
1979-07-20 09:11:06.880 ,0,1,0.,4.8,5.,4.8,0.,4.8,3.,4.8
1979-07-20 09:11:11.680 ,4,1,0.,4.8,4.,4.8,1.,4.8,2.,4.8
1979-07-20 09:11:16.480 ,4,1,0.,4.8,12.,4.8,3.,4.8,2.,4.8
1979-07-20 09:11:21.280 ,4,1,0.,4.8,11.,4.8,10.,4.8,6.,4.8
1979-07-20 09:11:26.080 ,4,1,0.,4.8,30.,4.8,18.,4.8,12.,4.8
1979-07-20 09:11:30.880 ,4,1,0.,4.8,15.,4.8,8.,4.8,4.,4.8
1979-07-20 09:11:35.680 ,7,1,0.,4.8,13.,4.8,7.,4.8,7.,4.8
1979-07-20 09:11:40.480 ,7,1,0.,4.8,2.,4.8,3.,4.8,3.,4.8
1979-07-20 09:11:45.280 ,7,1,0.,4.8,4.,4.8,3.,4.8,4.,4.8
1979-07-20 09:11:50.080 ,7,1,0.,4.8,3.,4.8,0.,4.8,0.,4.8
1979-07-20 09:11:54.880 ,7,1,0.,4.8,0.,4.8,0.,4.8,0.,4.8
1979-07-20 09:11:59.680 ,3,1,0.,4.8,3.,4.8,0.,4.8,0.,4.8
1979-07-20 09:12:04.480 ,3,1,0.,4.8,5.,4.8,2.,4.8,3.,4.8
1979-07-20 09:12:09.280 ,3,1,0.,4.8,5.,4.8,3.,4.8,5.,4.8
1979-07-20 09:12:14.080 ,3,1,0.,4.8,15.,4.8,9.,4.8,0.,4.8
1979-07-20 09:12:18.880 ,3,1,0.,4.8,14.,4.8,12.,4.8,4.,4.8
1979-07-20 09:12:23.680 ,0,1,0.,4.8,30.,4.8,14.,4.8,10.,4.8
1979-07-20 09:12:28.480 ,0,1,0.,4.8,8.,4.8,7.,4.8,5.,4.8
1979-07-20 09:12:33.280 ,0,1,0.,4.8,6.,4.8,1.,4.8,1.,4.8
1979-07-20 09:12:38.080 ,0,1,0.,4.8,6.,4.8,2.,4.8,3.,4.8
1979-07-20 09:12:42.880 ,0,1,0.,4.8,9.,4.8,3.,4.8,2.,4.8
1979-07-20 09:12:47.680 ,4,1,0.,4.8,4.,4.8,2.,4.8,1.,4.8
1979-07-20 09:12:52.480 ,4,1,0.,4.8,5.,4.8,4.,4.8,5.,4.8
1979-07-20 09:12:57.280 ,4,1,0.,4.8,10.,4.8,6.,4.8,3.,4.8
1979-07-20 09:13:02.080 ,4,1,0.,4.8,20.,4.8,14.,4.8,4.,4.8
1979-07-20 09:13:06.880 ,4,1,0.,4.8,14.,4.8,12.,4.8,6.,4.8
1979-07-20 09:13:11.680 ,7,1,0.,4.8,10.,4.8,6.,4.8,6.,4.8
1979-07-20 09:13:16.480 ,7,1,0.,4.8,5.,4.8,6.,4.8,1.,4.8
1979-07-20 09:13:21.280 ,7,1,0.,4.8,6.,4.8,2.,4.8,3.,4.8
1979-07-20 09:13:26.080 ,7,1,0.,4.8,1.,4.8,1.,4.8,0.,4.8
1979-07-20 09:13:30.880 ,7,1,0.,4.8,2.,4.8,0.,4.8,0.,4.8
1979-07-20 09:13:35.680 ,3,1,0.,4.8,1.,4.8,0.,4.8,1.,4.8
1979-07-20 09:13:40.480 ,3,1,0.,4.8,2.,4.8,4.,4.8,1.,4.8
1979-07-20 09:13:45.280 ,3,1,0.,4.8,5.,4.8,7.,4.8,7.,4.8
1979-07-20 09:13:50.080 ,3,1,0.,4.8,11.,4.8,15.,4.8,3.,4.8
1979-07-20 09:13:54.880 ,3,1,0.,4.8,20.,4.8,15.,4.8,6.,4.8
1979-07-20 09:13:59.680 ,0,1,0.,4.8,29.,4.8,22.,4.8,12.,4.8
1979-07-20 09:14:04.480 ,0,1,0.,4.8,11.,4.8,6.,4.8,4.,4.8
1979-07-20 09:14:09.280 ,0,1,0.,4.8,9.,4.8,4.,4.8,2.,4.8
1979-07-20 09:14:14.080 ,0,1,0.,4.8,12.,4.8,0.,4.8,0.,4.8
1979-07-20 09:14:18.880 ,0,1,0.,4.8,5.,4.8,3.,4.8,6.,4.8
1979-07-20 09:14:23.680 ,4,1,0.,4.8,5.,4.8,1.,4.8,2.,4.8
1979-07-20 09:14:28.480 ,4,1,0.,4.8,5.,4.8,4.,4.8,2.,4.8
1979-07-20 09:14:33.280 ,4,1,1.,4.8,12.,4.8,7.,4.8,5.,4.8
1979-07-20 09:14:38.080 ,4,1,0.,4.8,23.,4.8,14.,4.8,10.,4.8
1979-07-20 09:14:42.880 ,4,1,0.,4.8,18.,4.8,18.,4.8,8.,4.8
1979-07-20 09:14:47.680 ,7,1,0.,4.8,21.,4.8,5.,4.8,4.,4.8
1979-07-20 09:14:52.480 ,7,1,0.,4.8,12.,4.8,3.,4.8,3.,4.8
1979-07-20 09:14:57.280 ,7,1,0.,4.8,7.,4.8,5.,4.8,3.,4.8
1979-07-20 09:15:02.080 ,7,1,0.,4.8,3.,4.8,2.,4.8,0.,4.8
1979-07-20 09:15:06.880 ,7,1,0.,4.8,1.,4.8,0.,4.8,0.,4.8
1979-07-20 09:15:11.680 ,3,1,0.,4.8,4.,4.8,1.,4.8,0.,4.8
1979-07-20 09:15:16.480 ,3,1,0.,4.8,8.,4.8,6.,4.8,4.,4.8
1979-07-20 09:15:21.280 ,3,1,0.,4.8,8.,4.8,1.,4.8,3.,4.8
1979-07-20 09:15:26.080 ,3,1,0.,4.8,40.,4.8,5.,4.8,5.,4.8
1979-07-20 09:15:30.880 ,3,1,0.,4.8,38.,4.8,18.,4.8,5.,4.8
1979-07-20 09:15:35.680 ,0,1,0.,4.8,28.,4.8,15.,4.8,6.,4.8
1979-07-20 09:15:40.480 ,0,1,0.,4.8,12.,4.8,11.,4.8,3.,4.8
1979-07-20 09:15:45.280 ,0,1,0.,4.8,6.,4.8,2.,4.8,0.,4.8
1979-07-20 09:15:50.080 ,0,1,0.,4.8,6.,4.8,3.,4.8,5.,4.8
1979-07-20 09:15:54.880 ,0,1,0.,4.8,7.,4.8,1.,4.8,1.,4.8
1979-07-20 09:15:59.680 ,4,1,0.,4.8,7.,4.8,2.,4.8,1.,4.8
1979-07-20 09:16:04.480 ,4,1,0.,4.8,6.,4.8,6.,4.8,4.,4.8
1979-07-20 09:16:09.280 ,4,1,0.,4.8,16.,4.8,8.,4.8,4.,4.8
1979-07-20 09:16:14.080 ,4,1,0.,4.8,27.,4.8,26.,4.8,5.,4.8
1979-07-20 09:16:18.880 ,4,1,0.,4.8,35.,4.8,16.,4.8,7.,4.8
1979-07-20 09:16:23.680 ,7,1,0.,4.8,43.,4.8,8.,4.8,2.,4.8
1979-07-20 09:16:28.480 ,7,1,0.,4.8,9.,4.8,5.,4.8,2.,4.8
1979-07-20 09:16:33.280 ,7,1,0.,4.8,7.,4.8,5.,4.8,4.,4.8
1979-07-20 09:16:38.080 ,7,1,0.,4.8,2.,4.8,1.,4.8,0.,4.8
1979-07-20 09:16:42.880 ,7,1,0.,4.8,0.,4.8,0.,4.8,1.,4.8
1979-07-20 09:16:47.680 ,3,1,0.,4.8,1.,4.8,0.,4.8,1.,4.8
1979-07-20 09:16:52.480 ,3,1,0.,4.8,5.,4.8,3.,4.8,0.,4.8
1979-07-20 09:16:57.280 ,3,1,0.,4.8,14.,4.8,7.,4.8,2.,4.8
1979-07-20 09:17:02.080 ,3,1,0.,4.8,49.,4.8,12.,4.8,4.,4.8
1979-07-20 09:17:06.880 ,3,1,1.,4.8,52.,4.8,9.,4.8,6.,4.8
1979-07-20 09:17:11.680 ,0,1,0.,4.8,27.,4.8,22.,4.8,14.,4.8
1979-07-20 09:17:16.480 ,0,1,0.,4.8,16.,4.8,5.,4.8,11.,4.8
1979-07-20 09:17:21.280 ,0,1,0.,4.8,6.,4.8,4.,4.8,4.,4.8
1979-07-20 09:17:26.080 ,0,1,0.,4.8,2.,4.8,2.,4.8,2.,4.8
1979-07-20 09:17:30.880 ,0,1,0.,4.8,7.,4.8,2.,4.8,3.,4.8
1979-07-20 09:17:35.680 ,0,0,0.,4.8,8.,4.8,1.,4.8,4.,4.8
1979-07-20 09:17:40.480 ,0,0,0.,4.8,5.,4.8,1.,4.8,1.,4.8
1979-07-20 09:17:45.280 ,0,0,0.,4.8,23.,4.8,10.,4.8,3.,4.8
1979-07-20 09:17:50.080 ,0,0,1.,4.8,42.,4.8,24.,4.8,6.,4.8
1979-07-20 09:17:54.880 ,0,0,0.,4.8,64.,4.8,16.,4.8,3.,4.8
1979-07-20 09:17:59.680 ,0,0,0.,4.8,80.,4.8,13.,4.8,9.,4.8
1979-07-20 09:18:04.480 ,0,0,0.,4.8,12.,4.8,7.,4.8,6.,4.8
1979-07-20 09:18:09.280 ,0,0,0.,4.8,4.,4.8,4.,4.8,1.,4.8
1979-07-20 09:18:14.080 ,0,0,0.,4.8,4.,4.8,0.,4.8,2.,4.8
1979-07-20 09:18:18.880 ,0,0,0.,4.8,0.,4.8,0.,4.8,0.,4.8
1979-07-20 09:18:23.680 ,5,0,0.,4.8,5.,4.8,2.,4.8,1.,4.8
1979-07-20 09:18:28.480 ,5,0,0.,4.8,6.,4.8,6.,4.8,3.,4.8
1979-07-20 09:18:33.280 ,5,0,0.,4.8,18.,4.8,4.,4.8,2.,4.8
1979-07-20 09:18:38.080 ,5,0,0.,4.8,16.,4.8,4.,4.8,7.,4.8
1979-07-20 09:18:42.880 ,5,0,0.,4.8,14.,4.8,4.,4.8,1.,4.8
1979-07-20 09:18:47.680 ,5,0,0.,4.8,14.,4.8,5.,4.8,5.,4.8
1979-07-20 09:18:52.480 ,5,0,0.,4.8,17.,4.8,9.,4.8,2.,4.8
1979-07-20 09:18:57.280 ,5,0,0.,4.8,9.,4.8,5.,4.8,5.,4.8
1979-07-20 09:19:02.080 ,5,0,0.,4.8,14.,4.8,11.,4.8,3.,4.8
1979-07-20 09:19:06.880 ,5,0,0.,4.8,19.,4.8,9.,4.8,1.,4.8
1979-07-20 09:19:11.680 ,4,0,0.,4.8,23.,4.8,7.,4.8,3.,4.8
1979-07-20 09:19:16.480 ,4,0,0.,4.8,19.,4.8,11.,4.8,3.,4.8
1979-07-20 09:19:21.280 ,4,0,0.,4.8,106.,4.8,23.,4.8,8.,4.8
1979-07-20 09:19:26.080 ,4,0,0.,4.8,132.,4.8,24.,4.8,5.,4.8
1979-07-20 09:19:30.880 ,4,0,0.,4.8,98.,4.8,19.,4.8,7.,4.8
1979-07-20 09:19:35.680 ,4,0,0.,4.8,86.,4.8,27.,4.8,5.,4.8
1979-07-20 09:19:40.480 ,4,0,0.,4.8,120.,4.8,22.,4.8,7.,4.8
1979-07-20 09:19:45.280 ,4,0,0.,4.8,126.,4.8,29.,4.8,2.,4.8
1979-07-20 09:19:50.080 ,4,0,0.,4.8,114.,4.8,15.,4.8,9.,4.8
1979-07-20 09:19:54.880 ,4,0,0.,4.8,132.,4.8,29.,4.8,8.,4.8
1979-07-20 09:19:59.680 ,3,0,1.,4.8,108.,4.8,28.,4.8,7.,4.8
1979-07-20 09:20:04.480 ,3,0,0.,4.8,128.,4.8,24.,4.8,6.,4.8
1979-07-20 09:20:09.280 ,3,0,0.,4.8,48.,4.8,21.,4.8,12.,4.8
1979-07-20 09:20:14.080 ,3,0,0.,4.8,45.,4.8,29.,4.8,13.,4.8
1979-07-20 09:20:18.880 ,3,0,0.,4.8,56.,4.8,24.,4.8,12.,4.8
1979-07-20 09:20:23.680 ,3,0,0.,4.8,47.,4.8,26.,4.8,8.,4.8
1979-07-20 09:20:28.480 ,3,0,0.,4.8,51.,4.8,28.,4.8,12.,4.8
1979-07-20 09:20:33.280 ,3,0,0.,4.8,55.,4.8,22.,4.8,15.,4.8
1979-07-20 09:20:38.080 ,3,0,0.,4.8,56.,4.8,17.,4.8,13.,4.8
1979-07-20 09:20:42.880 ,3,0,0.,4.8,58.,4.8,30.,4.8,10.,4.8
1979-07-20 09:20:47.680 ,2,0,1.,4.8,36.,4.8,25.,4.8,10.,4.8
1979-07-20 09:20:52.480 ,2,0,0.,4.8,46.,4.8,25.,4.8,11.,4.8
1979-07-20 09:20:57.280 ,2,0,0.,4.8,25.,4.8,14.,4.8,4.,4.8
1979-07-20 09:21:02.080 ,2,0,0.,4.8,29.,4.8,12.,4.8,11.,4.8
1979-07-20 09:21:06.880 ,2,0,0.,4.8,31.,4.8,19.,4.8,4.,4.8
1979-07-20 09:21:11.680 ,2,0,1.,4.8,21.,4.8,10.,4.8,6.,4.8
1979-07-20 09:21:16.480 ,2,0,0.,4.8,26.,4.8,13.,4.8,5.,4.8
1979-07-20 09:21:21.280 ,2,0,0.,4.8,24.,4.8,13.,4.8,8.,4.8
1979-07-20 09:21:26.080 ,2,0,0.,4.8,25.,4.8,13.,4.8,3.,4.8
1979-07-20 09:21:30.880 ,2,0,0.,4.8,18.,4.8,11.,4.8,3.,4.8
1979-07-20 09:21:35.680 ,1,0,0.,4.8,17.,4.8,16.,4.8,4.,4.8
1979-07-20 09:21:40.480 ,1,0,0.,4.8,28.,4.8,11.,4.8,3.,4.8
1979-07-20 09:21:45.280 ,1,0,0.,4.8,12.,4.8,2.,4.8,1.,4.8
1979-07-20 09:21:50.080 ,1,0,0.,4.8,7.,4.8,1.,4.8,2.,4.8
1979-07-20 09:21:54.880 ,1,0,0.,4.8,12.,4.8,4.,4.8,7.,4.8
1979-07-20 09:21:59.680 ,1,0,0.,4.8,8.,4.8,2.,4.8,2.,4.8
1979-07-20 09:22:04.480 ,1,0,0.,4.8,12.,4.8,6.,4.8,2.,4.8
1979-07-20 09:22:09.280 ,1,0,0.,4.8,8.,4.8,0.,4.8,4.,4.8
1979-07-20 09:22:14.080 ,1,0,0.,4.8,7.,4.8,3.,4.8,2.,4.8
1979-07-20 09:22:18.880 ,1,0,0.,4.8,6.,4.8,4.,4.8,3.,4.8
1979-07-20 09:22:23.680 ,0,0,0.,4.8,8.,4.8,4.,4.8,5.,4.8
1979-07-20 09:22:28.480 ,0,0,0.,4.8,9.,4.8,6.,4.8,4.,4.8
1979-07-20 09:22:33.280 ,0,0,0.,4.8,4.,4.8,0.,4.8,6.,4.8
1979-07-20 09:22:38.080 ,0,0,0.,4.8,11.,4.8,2.,4.8,4.,4.8
1979-07-20 09:22:42.880 ,0,0,0.,4.8,13.,4.8,0.,4.8,2.,4.8
1979-07-20 09:22:47.680 ,0,0,0.,4.8,6.,4.8,3.,4.8,0.,4.8
1979-07-20 09:22:52.480 ,0,0,0.,4.8,7.,4.8,3.,4.8,2.,4.8
1979-07-20 09:22:57.280 ,0,0,0.,4.8,9.,4.8,4.,4.8,1.,4.8
1979-07-20 09:23:02.080 ,0,0,0.,4.8,9.,4.8,2.,4.8,3.,4.8
1979-07-20 09:23:06.880 ,0,0,0.,4.8,8.,4.8,3.,4.8,0.,4.8
1979-07-20 09:23:11.680 ,0,0,0.,4.8,10.,4.8,1.,4.8,4.,4.8
1979-07-20 09:23:16.480 ,0,0,0.,4.8,5.,4.8,1.,4.8,4.,4.8
1979-07-20 09:23:21.280 ,0,0,0.,4.8,9.,4.8,1.,4.8,4.,4.8
1979-07-20 09:23:26.080 ,0,0,0.,4.8,8.,4.8,1.,4.8,1.,4.8
1979-07-20 09:23:30.880 ,0,0,0.,4.8,9.,4.8,2.,4.8,2.,4.8
1979-07-20 09:23:35.680 ,0,0,0.,4.8,6.,4.8,1.,4.8,0.,4.8
1979-07-20 09:23:40.480 ,0,0,0.,4.8,4.,4.8,3.,4.8,2.,4.8
1979-07-20 09:23:45.280 ,0,0,0.,4.8,6.,4.8,1.,4.8,2.,4.8
1979-07-20 09:23:50.080 ,0,0,0.,4.8,9.,4.8,1.,4.8,2.,4.8
1979-07-20 09:23:54.880 ,0,0,0.,4.8,9.,4.8,3.,4.8,8.,4.8
1979-07-20 09:23:59.680 ,1,0,0.,4.8,5.,4.8,4.,4.8,2.,4.8
1979-07-20 09:24:04.480 ,1,0,0.,4.8,5.,4.8,3.,4.8,1.,4.8
1979-07-20 09:24:09.280 ,1,0,0.,4.8,6.,4.8,1.,4.8,2.,4.8
1979-07-20 09:24:14.080 ,1,0,0.,4.8,4.,4.8,5.,4.8,2.,4.8
1979-07-20 09:24:18.880 ,1,0,0.,4.8,7.,4.8,2.,4.8,3.,4.8
1979-07-20 09:24:23.680 ,1,0,0.,4.8,5.,4.8,0.,4.8,6.,4.8
1979-07-20 09:24:28.480 ,1,0,0.,4.8,2.,4.8,4.,4.8,7.,4.8
1979-07-20 09:24:33.280 ,1,0,0.,4.8,2.,4.8,0.,4.8,1.,4.8
1979-07-20 09:24:38.080 ,1,0,0.,4.8,5.,4.8,3.,4.8,1.,4.8
1979-07-20 09:24:42.880 ,1,0,0.,4.8,3.,4.8,3.,4.8,3.,4.8
1979-07-20 09:24:47.680 ,2,0,0.,4.8,4.,4.8,2.,4.8,1.,4.8
1979-07-20 09:24:52.480 ,2,0,0.,4.8,3.,4.8,3.,4.8,4.,4.8
1979-07-20 09:24:57.280 ,2,0,0.,4.8,28.,4.8,12.,4.8,4.,4.8
1979-07-20 09:25:02.080 ,2,0,0.,4.8,30.,4.8,8.,4.8,6.,4.8
1979-07-20 09:25:06.880 ,2,0,0.,4.8,17.,4.8,9.,4.8,6.,4.8
1979-07-20 09:25:11.680 ,2,0,0.,4.8,18.,4.8,15.,4.8,7.,4.8
1979-07-20 09:25:16.480 ,2,0,0.,4.8,21.,4.8,10.,4.8,6.,4.8
1979-07-20 09:25:21.280 ,2,0,0.,4.8,19.,4.8,12.,4.8,7.,4.8
1979-07-20 09:25:26.080 ,2,0,1.,4.8,16.,4.8,16.,4.8,3.,4.8
1979-07-20 09:25:30.880 ,2,0,0.,4.8,18.,4.8,11.,4.8,3.,4.8
1979-07-20 09:25:35.680 ,3,0,0.,4.8,12.,4.8,6.,4.8,4.,4.8
1979-07-20 09:25:40.480 ,3,0,0.,4.8,18.,4.8,8.,4.8,3.,4.8
1979-07-20 09:25:45.280 ,3,0,0.,4.8,57.,4.8,19.,4.8,10.,4.8
1979-07-20 09:25:50.080 ,3,0,0.,4.8,49.,4.8,19.,4.8,10.,4.8
1979-07-20 09:25:54.880 ,3,0,0.,4.8,39.,4.8,21.,4.8,7.,4.8
1979-07-20 09:25:59.680 ,3,0,0.,4.8,38.,4.8,10.,4.8,5.,4.8
1979-07-20 09:26:04.480 ,3,0,0.,4.8,46.,4.8,8.,4.8,8.,4.8
1979-07-20 09:26:09.280 ,3,0,0.,4.8,35.,4.8,15.,4.8,9.,4.8
1979-07-20 09:26:14.080 ,3,0,0.,4.8,38.,4.8,21.,4.8,3.,4.8
1979-07-20 09:26:18.880 ,3,0,0.,4.8,34.,4.8,14.,4.8,10.,4.8
1979-07-20 09:26:23.680 ,4,0,0.,4.8,46.,4.8,18.,4.8,6.,4.8
1979-07-20 09:26:28.480 ,4,0,0.,4.8,32.,4.8,11.,4.8,13.,4.8
1979-07-20 09:26:33.280 ,4,0,0.,4.8,54.,4.8,10.,4.8,6.,4.8
1979-07-20 09:26:38.080 ,4,0,0.,4.8,62.,4.8,10.,4.8,6.,4.8
1979-07-20 09:26:42.880 ,4,0,0.,4.8,41.,4.8,10.,4.8,5.,4.8
1979-07-20 09:26:47.680 ,4,0,0.,4.8,50.,4.8,9.,4.8,5.,4.8
1979-07-20 09:26:52.480 ,4,0,0.,4.8,33.,4.8,2.,4.8,8.,4.8
1979-07-20 09:26:57.280 ,4,0,0.,4.8,36.,4.8,14.,4.8,2.,4.8
1979-07-20 09:27:02.080 ,4,0,0.,4.8,32.,4.8,6.,4.8,3.,4.8
1979-07-20 09:27:06.880 ,4,0,0.,4.8,25.,4.8,11.,4.8,2.,4.8
1979-07-20 09:27:11.680 ,5,0,0.,4.8,27.,4.8,9.,4.8,5.,4.8
1979-07-20 09:27:16.480 ,5,0,0.,4.8,27.,4.8,7.,4.8,2.,4.8
1979-07-20 09:27:21.280 ,5,0,0.,4.8,7.,4.8,2.,4.8,0.,4.8
1979-07-20 09:27:26.080 ,5,0,0.,4.8,5.,4.8,2.,4.8,1.,4.8
1979-07-20 09:27:30.880 ,5,0,0.,4.8,4.,4.8,3.,4.8,3.,4.8
1979-07-20 09:27:35.680 ,5,0,0.,4.8,5.,4.8,2.,4.8,4.,4.8
1979-07-20 09:27:40.480 ,5,0,0.,4.8,4.,4.8,7.,4.8,1.,4.8
1979-07-20 09:27:45.280 ,5,0,0.,4.8,1.,4.8,4.,4.8,5.,4.8
1979-07-20 09:27:50.080 ,5,0,0.,4.8,3.,4.8,5.,4.8,4.,4.8
1979-07-20 09:27:54.880 ,5,0,0.,4.8,4.,4.8,2.,4.8,1.,4.8
1979-07-20 09:27:59.680 ,6,0,0.,4.8,2.,4.8,0.,4.8,1.,4.8
1979-07-20 09:28:04.480 ,6,0,0.,4.8,3.,4.8,4.,4.8,1.,4.8
1979-07-20 09:28:09.280 ,6,0,0.,4.8,7.,4.8,2.,4.8,3.,4.8
1979-07-20 09:28:14.080 ,6,0,0.,4.8,11.,4.8,4.,4.8,3.,4.8
1979-07-20 09:28:18.880 ,6,0,0.,4.8,4.,4.8,2.,4.8,4.,4.8
1979-07-20 09:28:23.680 ,6,0,0.,4.8,7.,4.8,2.,4.8,3.,4.8
1979-07-20 09:28:28.480 ,6,0,0.,4.8,4.,4.8,2.,4.8,4.,4.8
1979-07-20 09:28:33.280 ,6,0,0.,4.8,7.,4.8,2.,4.8,2.,4.8
1979-07-20 09:28:38.080 ,6,0,0.,4.8,2.,4.8,4.,4.8,1.,4.8
1979-07-20 09:28:42.880 ,6,0,0.,4.8,2.,4.8,4.,4.8,3.,4.8
1979-07-20 09:28:47.680 ,7,0,0.,4.8,5.,4.8,5.,4.8,1.,4.8
1979-07-20 09:28:52.480 ,7,0,0.,4.8,8.,4.8,2.,4.8,0.,4.8
1979-07-20 09:28:57.280 ,7,0,0.,4.8,0.,4.8,0.,4.8,0.,4.8
1979-07-20 09:29:02.080 ,7,0,0.,4.8,0.,4.8,0.,4.8,0.,4.8
1979-07-20 09:29:06.880 ,7,0,0.,4.8,0.,4.8,0.,4.8,0.,4.8
1979-07-20 09:29:11.680 ,7,0,0.,4.8,0.,4.8,0.,4.8,0.,4.8
1979-07-20 09:29:16.480 ,7,0,0.,4.8,1.,4.8,0.,4.8,0.,4.8
1979-07-20 09:29:21.280 ,7,0,0.,4.8,0.,4.8,0.,4.8,0.,4.8
1979-07-20 09:29:26.080 ,7,0,0.,4.8,0.,4.8,0.,4.8,0.,4.8
1979-07-20 09:29:30.880 ,7,0,0.,4.8,0.,4.8,0.,4.8,0.,4.8
1979-07-20 09:29:35.680 ,7,0,0.,4.8,0.,4.8,1.,4.8,0.,4.8
1979-07-20 09:29:40.480 ,7,0,0.,4.8,0.,4.8,0.,4.8,0.,4.8
1979-07-20 09:29:45.280 ,7,0,0.,4.8,1.,4.8,0.,4.8,0.,4.8
1979-07-20 09:29:50.080 ,7,0,0.,4.8,0.,4.8,0.,4.8,0.,4.8
1979-07-20 09:29:54.880 ,7,0,0.,4.8,1.,4.8,0.,4.8,1.,4.8
1979-07-20 09:29:59.680 ,7,0,0.,4.8,0.,4.8,0.,4.8,0.,4.8
1979-07-20 09:30:04.480 ,7,0,0.,4.8,0.,4.8,0.,4.8,0.,4.8
1979-07-20 09:30:09.280 ,7,0,0.,4.8,2.,4.8,0.,4.8,0.,4.8
1979-07-20 09:30:14.080 ,7,0,0.,4.8,1.,4.8,0.,4.8,0.,4.8
1979-07-20 09:30:18.880 ,7,0,0.,4.8,0.,4.8,0.,4.8,0.,4.8
1979-07-20 09:30:23.680 ,6,0,0.,4.8,3.,4.8,0.,4.8,0.,4.8
1979-07-20 09:30:28.480 ,6,0,0.,4.8,0.,4.8,0.,4.8,2.,4.8
1979-07-20 09:30:33.280 ,6,0,0.,4.8,3.,4.8,5.,4.8,0.,4.8
1979-07-20 09:30:38.080 ,6,0,0.,4.8,8.,4.8,1.,4.8,3.,4.8
1979-07-20 09:30:42.880 ,6,0,0.,4.8,3.,4.8,2.,4.8,2.,4.8
1979-07-20 09:30:47.680 ,6,0,0.,4.8,5.,4.8,1.,4.8,2.,4.8
1979-07-20 09:30:52.480 ,6,0,0.,4.8,1.,4.8,0.,4.8,1.,4.8
1979-07-20 09:30:57.280 ,6,0,0.,4.8,5.,4.8,1.,4.8,0.,4.8
1979-07-20 09:31:02.080 ,6,0,0.,4.8,4.,4.8,2.,4.8,1.,4.8
1979-07-20 09:31:06.880 ,6,0,0.,4.8,0.,4.8,1.,4.8,1.,4.8
1979-07-20 09:31:11.680 ,5,0,0.,4.8,4.,4.8,3.,4.8,3.,4.8
1979-07-20 09:31:16.480 ,5,0,0.,4.8,7.,4.8,3.,4.8,1.,4.8
1979-07-20 09:31:21.280 ,5,0,0.,4.8,11.,4.8,2.,4.8,4.,4.8
1979-07-20 09:31:26.080 ,5,0,0.,4.8,1.,4.8,2.,4.8,5.,4.8
1979-07-20 09:31:30.880 ,5,0,0.,4.8,5.,4.8,4.,4.8,2.,4.8
1979-07-20 09:31:35.680 ,5,0,0.,4.8,5.,4.8,2.,4.8,1.,4.8
1979-07-20 09:31:40.480 ,5,0,0.,4.8,5.,4.8,1.,4.8,0.,4.8
1979-07-20 09:31:45.280 ,5,0,0.,4.8,4.,4.8,2.,4.8,3.,4.8
1979-07-20 09:31:50.080 ,5,0,0.,4.8,5.,4.8,4.,4.8,3.,4.8
1979-07-20 09:31:54.880 ,5,0,0.,4.8,8.,4.8,3.,4.8,3.,4.8
1979-07-20 09:31:59.680 ,4,0,0.,4.8,3.,4.8,2.,4.8,1.,4.8
1979-07-20 09:32:04.480 ,4,0,0.,4.8,2.,4.8,4.,4.8,3.,4.8
1979-07-20 09:32:09.280 ,4,0,0.,4.8,3.,4.8,3.,4.8,7.,4.8
1979-07-20 09:32:14.080 ,4,0,1.,4.8,5.,4.8,0.,4.8,2.,4.8
1979-07-20 09:32:18.880 ,4,0,0.,4.8,3.,4.8,3.,4.8,5.,4.8
1979-07-20 09:32:23.680 ,4,0,0.,4.8,3.,4.8,5.,4.8,3.,4.8
1979-07-20 09:32:28.480 ,4,0,0.,4.8,9.,4.8,2.,4.8,4.,4.8
1979-07-20 09:32:33.280 ,4,0,0.,4.8,5.,4.8,3.,4.8,2.,4.8
1979-07-20 09:32:38.080 ,4,0,0.,4.8,1.,4.8,1.,4.8,2.,4.8
1979-07-20 09:32:42.880 ,4,0,0.,4.8,4.,4.8,5.,4.8,3.,4.8
1979-07-20 09:32:47.680 ,3,0,0.,4.8,5.,4.8,4.,4.8,4.,4.8
1979-07-20 09:32:52.480 ,3,0,0.,4.8,6.,4.8,4.,4.8,1.,4.8
1979-07-20 09:32:57.280 ,3,0,0.,4.8,7.,4.8,4.,4.8,4.,4.8
1979-07-20 09:33:02.080 ,3,0,0.,4.8,4.,4.8,9.,4.8,4.,4.8
1979-07-20 09:33:06.880 ,3,0,0.,4.8,8.,4.8,9.,4.8,6.,4.8
1979-07-20 09:33:11.680 ,3,0,0.,4.8,7.,4.8,7.,4.8,4.,4.8
1979-07-20 09:33:16.480 ,3,0,0.,4.8,8.,4.8,6.,4.8,5.,4.8
1979-07-20 09:33:21.280 ,3,0,0.,4.8,3.,4.8,3.,4.8,4.,4.8
1979-07-20 09:33:26.080 ,3,0,0.,4.8,4.,4.8,5.,4.8,1.,4.8
1979-07-20 09:33:30.880 ,3,0,0.,4.8,6.,4.8,5.,4.8,3.,4.8
1979-07-20 09:33:35.680 ,2,0,0.,4.8,7.,4.8,8.,4.8,4.,4.8
1979-07-20 09:33:40.480 ,2,0,0.,4.8,6.,4.8,7.,4.8,10.,4.8
1979-07-20 09:33:45.280 ,2,0,0.,4.8,10.,4.8,7.,4.8,5.,4.8
1979-07-20 09:33:50.080 ,2,0,0.,4.8,8.,4.8,9.,4.8,4.,4.8
1979-07-20 09:33:54.880 ,2,0,0.,4.8,10.,4.8,9.,4.8,3.,4.8
1979-07-20 09:33:59.680 ,2,0,0.,4.8,10.,4.8,5.,4.8,5.,4.8
1979-07-20 09:34:04.480 ,2,0,0.,4.8,6.,4.8,6.,4.8,1.,4.8
1979-07-20 09:34:09.280 ,2,0,0.,4.8,9.,4.8,7.,4.8,2.,4.8
1979-07-20 09:34:14.080 ,2,0,0.,4.8,8.,4.8,7.,4.8,3.,4.8
1979-07-20 09:34:18.880 ,2,0,0.,4.8,10.,4.8,5.,4.8,2.,4.8
1979-07-20 09:34:23.680 ,1,0,0.,4.8,5.,4.8,10.,4.8,3.,4.8
1979-07-20 09:34:28.480 ,1,0,0.,4.8,6.,4.8,9.,4.8,7.,4.8
1979-07-20 09:34:33.280 ,1,0,0.,4.8,5.,4.8,5.,4.8,2.,4.8
1979-07-20 09:34:38.080 ,1,0,0.,4.8,5.,4.8,4.,4.8,4.,4.8
1979-07-20 09:34:42.880 ,1,0,0.,4.8,5.,4.8,6.,4.8,3.,4.8
1979-07-20 09:34:47.680 ,1,0,0.,4.8,2.,4.8,1.,4.8,1.,4.8
1979-07-20 09:34:52.480 ,1,0,0.,4.8,6.,4.8,7.,4.8,3.,4.8
1979-07-20 09:34:57.280 ,1,0,0.,4.8,7.,4.8,0.,4.8,0.,4.8
1979-07-20 09:35:02.080 ,1,0,0.,4.8,5.,4.8,2.,4.8,2.,4.8
1979-07-20 09:35:06.880 ,1,0,0.,4.8,3.,4.8,4.,4.8,2.,4.8
1979-07-20 09:35:11.680 ,0,0,0.,4.8,6.,4.8,6.,4.8,1.,4.8
1979-07-20 09:35:16.480 ,0,0,0.,4.8,6.,4.8,7.,4.8,1.,4.8
1979-07-20 09:35:21.280 ,0,0,0.,4.8,5.,4.8,6.,4.8,1.,4.8
1979-07-20 09:35:26.080 ,0,0,0.,4.8,2.,4.8,2.,4.8,1.,4.8
1979-07-20 09:35:30.880 ,0,0,0.,4.8,6.,4.8,1.,4.8,1.,4.8
1979-07-20 09:35:35.680 ,0,0,0.,4.8,7.,4.8,5.,4.8,0.,4.8
1979-07-20 09:35:40.480 ,0,0,0.,4.8,6.,4.8,2.,4.8,0.,4.8
1979-07-20 09:35:45.280 ,0,0,0.,4.8,5.,4.8,1.,4.8,0.,4.8
1979-07-20 09:35:50.080 ,0,0,0.,4.8,6.,4.8,4.,4.8,2.,4.8
1979-07-20 09:35:54.880 ,0,0,0.,4.8,1.,4.8,3.,4.8,1.,4.8
1979-07-20 09:35:59.680 ,0,0,0.,4.8,5.,4.8,3.,4.8,2.,4.8
1979-07-20 09:36:04.480 ,0,0,0.,4.8,1.,4.8,3.,4.8,3.,4.8
1979-07-20 09:36:09.280 ,0,0,0.,4.8,0.,4.8,4.,4.8,8.,4.8
1979-07-20 09:36:14.080 ,0,0,0.,4.8,1.,4.8,4.,4.8,1.,4.8
1979-07-20 09:36:18.880 ,0,0,0.,4.8,1.,4.8,8.,4.8,1.,4.8
1979-07-20 09:36:23.680 ,0,0,0.,4.8,4.,4.8,4.,4.8,1.,4.8
1979-07-20 09:36:28.480 ,0,0,0.,4.8,2.,4.8,3.,4.8,2.,4.8
1979-07-20 09:36:33.280 ,0,0,0.,4.8,5.,4.8,5.,4.8,3.,4.8
1979-07-20 09:36:38.080 ,0,0,0.,4.8,4.,4.8,2.,4.8,1.,4.8
1979-07-20 09:36:42.880 ,0,0,0.,4.8,1.,4.8,3.,4.8,5.,4.8
1979-07-20 09:36:47.680 ,1,0,0.,4.8,8.,4.8,5.,4.8,3.,4.8
1979-07-20 09:36:52.480 ,1,0,0.,4.8,6.,4.8,1.,4.8,1.,4.8
1979-07-20 09:36:57.280 ,1,0,0.,4.8,4.,4.8,2.,4.8,3.,4.8
1979-07-20 09:37:02.080 ,1,0,0.,4.8,7.,4.8,0.,4.8,0.,4.8
1979-07-20 09:37:06.880 ,1,0,0.,4.8,4.,4.8,1.,4.8,2.,4.8